Time,TemperatureF,DewpointF,PressureIn,WindDirection,WindDirectionDegrees,WindSpeedMPH,WindSpeedGustMPH,Humidity,HourlyPrecipIn,Conditions,Clouds,dailyrainin,SoftwareType,DateUTC
2013-01-30 00:01:00,36.3,35.3,30.47,SSW,207,0.0,0.0,96,0.00,,,0.00,WeatherTracker,2013-01-30 08:01:00,
2013-01-30 00:06:00,36.3,35.3,30.48,SSW,207,0.0,0.0,96,0.00,,,0.00,WeatherTracker,2013-01-30 08:06:00,
2013-01-30 00:11:00,36.3,35.3,30.47,SSW,207,0.0,0.0,96,0.00,,,0.00,WeatherTracker,2013-01-30 08:11:00,
2013-01-30 00:16:00,36.5,35.5,30.47,SSW,207,0.0,0.0,96,0.00,,,0.00,WeatherTracker,2013-01-30 08:16:00,
2013-01-30 00:21:00,36.6,35.6,30.47,SSW,207,0.0,0.0,96,0.00,,,0.00,WeatherTracker,2013-01-30 08:21:00,
2013-01-30 00:26:00,36.6,35.6,30.47,SSW,207,0.0,0.0,96,0.00,,,0.00,WeatherTracker,2013-01-30 08:26:00,
2013-01-30 00:31:00,36.7,35.7,30.47,SSW,207,0.0,0.0,96,0.00,,,0.00,WeatherTracker,2013-01-30 08:31:00,
2013-01-30 00:36:00,36.7,35.7,30.47,SSW,207,0.0,0.0,96,0.00,,,0.00,WeatherTracker,2013-01-30 08:36:00,
2013-01-30 00:41:00,36.8,35.8,30.47,SSW,207,0.0,0.0,96,0.00,,,0.00,WeatherTracker,2013-01-30 08:41:00,
2013-01-30 00:46:00,36.8,35.8,30.47,SSW,207,0.0,0.0,96,0.00,,,0.00,WeatherTracker,2013-01-30 08:46:00,
2013-01-30 00:51:00,36.8,35.8,30.47,SSW,207,0.0,0.0,96,0.00,,,0.00,WeatherTracker,2013-01-30 08:51:00,
2013-01-30 00:56:00,36.8,35.8,30.47,SSW,207,0.0,0.0,96,0.00,,,0.00,WeatherTracker,2013-01-30 08:56:00,
2013-01-30 01:01:00,36.9,35.9,30.47,SSW,207,0.0,0.0,96,0.00,,,0.00,WeatherTracker,2013-01-30 09:01:00,
2013-01-30 01:06:00,37.0,36.0,30.47,SSW,207,0.0,0.0,96,0.00,,,0.00,WeatherTracker,2013-01-30 09:06:00,
2013-01-30 01:11:00,37.0,36.0,30.47,SSW,207,0.0,0.0,96,0.00,,,0.00,WeatherTracker,2013-01-30 09:11:00,
2013-01-30 01:16:00,37.0,36.0,30.48,SSW,207,0.0,0.0,96,0.00,,,0.00,WeatherTracker,2013-01-30 09:16:00,
2013-01-30 01:21:00,37.0,36.0,30.48,SSW,207,0.0,0.0,96,0.00,,,0.00,WeatherTracker,2013-01-30 09:21:00,
2013-01-30 01:26:00,37.0,36.0,30.48,SSW,207,0.0,0.0,96,0.00,,,0.00,WeatherTracker,2013-01-30 09:26:00,
2013-01-30 01:31:00,37.0,36.0,30.48,SSW,207,0.0,0.0,96,0.00,,,0.00,WeatherTracker,2013-01-30 09:31:00,
2013-01-30 01:36:00,37.0,35.7,30.48,SSW,207,0.0,0.0,95,0.00,,,0.00,WeatherTracker,2013-01-30 09:36:00,
2013-01-30 01:41:00,36.9,35.6,30.48,SSW,207,0.0,0.0,95,0.00,,,0.00,WeatherTracker,2013-01-30 09:41:00,
2013-01-30 01:46:00,36.8,35.5,30.48,SSW,207,0.0,0.0,95,0.00,,,0.00,WeatherTracker,2013-01-30 09:46:00,
2013-01-30 01:51:00,36.8,35.5,30.48,SSW,207,0.0,0.0,95,0.00,,,0.00,WeatherTracker,2013-01-30 09:51:00,
2013-01-30 01:56:00,36.7,35.4,30.48,SSW,207,0.0,0.0,95,0.00,,,0.00,WeatherTracker,2013-01-30 09:56:00,
2013-01-30 02:01:00,36.6,35.3,30.48,SSW,207,0.0,0.0,95,0.00,,,0.00,WeatherTracker,2013-01-30 10:01:00,
2013-01-30 02:06:00,36.6,35.3,30.48,SSW,207,0.0,0.0,95,0.00,,,0.00,WeatherTracker,2013-01-30 10:06:00,
2013-01-30 02:11:00,36.6,35.3,30.48,SSW,207,0.0,0.0,95,0.00,,,0.00,WeatherTracker,2013-01-30 10:11:00,
2013-01-30 02:16:00,36.5,35.2,30.48,SSW,207,1.0,0.0,95,0.00,,,0.00,WeatherTracker,2013-01-30 10:16:00,
2013-01-30 02:21:00,36.4,34.8,30.48,SSW,207,0.0,0.0,94,0.00,,,0.00,WeatherTracker,2013-01-30 10:21:00,
2013-01-30 02:26:00,36.4,34.8,30.48,SSW,207,0.0,0.0,94,0.00,,,0.00,WeatherTracker,2013-01-30 10:26:00,
2013-01-30 02:32:00,36.4,35.1,30.48,SSW,207,0.0,0.0,95,0.00,,,0.00,WeatherTracker,2013-01-30 10:32:00,
2013-01-30 02:37:00,36.5,35.2,30.49,SSW,207,0.0,0.0,95,0.00,,,0.00,WeatherTracker,2013-01-30 10:37:00,
2013-01-30 02:42:00,36.5,34.9,30.49,SSW,207,0.0,0.0,94,0.00,,,0.00,WeatherTracker,2013-01-30 10:42:00,
2013-01-30 02:47:00,36.5,35.2,30.49,SSW,207,0.0,0.0,95,0.00,,,0.00,WeatherTracker,2013-01-30 10:47:00,
2013-01-30 02:52:00,36.6,35.3,30.49,SSW,207,0.0,0.0,95,0.00,,,0.00,WeatherTracker,2013-01-30 10:52:00,
2013-01-30 02:57:00,36.6,35.3,30.49,SSW,207,0.0,0.0,95,0.00,,,0.00,WeatherTracker,2013-01-30 10:57:00,
2013-01-30 03:02:00,36.6,35.3,30.49,SSW,207,0.0,0.0,95,0.00,,,0.00,WeatherTracker,2013-01-30 11:02:00,
2013-01-30 03:07:00,36.6,35.3,30.49,SSW,207,0.0,0.0,95,0.00,,,0.00,WeatherTracker,2013-01-30 11:07:00,
2013-01-30 03:12:00,36.7,35.4,30.49,SSW,207,0.0,0.0,95,0.00,,,0.00,WeatherTracker,2013-01-30 11:12:00,
2013-01-30 03:17:00,36.8,35.5,30.49,SSW,207,0.0,0.0,95,0.00,,,0.00,WeatherTracker,2013-01-30 11:17:00,
2013-01-30 03:22:00,36.8,35.5,30.49,SSW,207,0.0,0.0,95,0.00,,,0.00,WeatherTracker,2013-01-30 11:22:00,
2013-01-30 03:27:00,36.9,35.6,30.49,SSW,207,0.0,0.0,95,0.00,,,0.00,WeatherTracker,2013-01-30 11:27:00,
2013-01-30 03:32:00,36.9,35.3,30.49,SSW,207,0.0,0.0,94,0.00,,,0.00,WeatherTracker,2013-01-30 11:32:00,
2013-01-30 03:37:00,36.9,35.3,30.50,SSW,207,0.0,0.0,94,0.00,,,0.00,WeatherTracker,2013-01-30 11:37:00,
2013-01-30 03:42:00,36.9,35.3,30.50,SSW,207,0.0,0.0,94,0.00,,,0.00,WeatherTracker,2013-01-30 11:42:00,
2013-01-30 03:47:00,36.9,35.3,30.49,SSW,207,0.0,0.0,94,0.00,,,0.00,WeatherTracker,2013-01-30 11:47:00,
2013-01-30 03:52:00,37.0,35.4,30.49,SSW,207,0.0,0.0,94,0.00,,,0.00,WeatherTracker,2013-01-30 11:52:00,
2013-01-30 03:57:00,37.0,35.4,30.49,SSW,207,0.0,0.0,94,0.00,,,0.00,WeatherTracker,2013-01-30 11:57:00,
2013-01-30 04:02:00,37.0,35.4,30.49,SSW,207,0.0,0.0,94,0.00,,,0.00,WeatherTracker,2013-01-30 12:02:00,
2013-01-30 04:07:00,37.1,35.5,30.49,SSW,207,0.0,0.0,94,0.00,,,0.00,WeatherTracker,2013-01-30 12:07:00,
2013-01-30 04:12:00,37.1,35.5,30.49,SSW,207,0.0,0.0,94,0.00,,,0.00,WeatherTracker,2013-01-30 12:12:00,
2013-01-30 04:17:00,37.0,35.4,30.49,SSW,207,0.0,0.0,94,0.00,,,0.00,WeatherTracker,2013-01-30 12:17:00,
2013-01-30 04:22:00,37.1,35.8,30.49,SSW,207,0.0,0.0,95,0.00,,,0.00,WeatherTracker,2013-01-30 12:22:00,
2013-01-30 04:27:00,37.1,35.8,30.49,SSW,207,0.0,0.0,95,0.00,,,0.00,WeatherTracker,2013-01-30 12:27:00,
2013-01-30 04:33:00,37.1,35.8,30.49,SSW,207,0.0,0.0,95,0.00,,,0.00,WeatherTracker,2013-01-30 12:33:00,
2013-01-30 04:38:00,37.2,35.9,30.49,SSW,207,0.0,0.0,95,0.00,,,0.00,WeatherTracker,2013-01-30 12:38:00,
2013-01-30 04:43:00,37.2,35.9,30.49,SSW,207,0.0,0.0,95,0.00,,,0.00,WeatherTracker,2013-01-30 12:43:00,
2013-01-30 04:48:00,37.3,36.0,30.50,SSW,207,0.0,0.0,95,0.00,,,0.00,WeatherTracker,2013-01-30 12:48:00,
2013-01-30 04:53:00,37.3,36.0,30.50,SSW,207,0.0,0.0,95,0.00,,,0.00,WeatherTracker,2013-01-30 12:53:00,
2013-01-30 04:58:00,37.3,36.0,30.50,SSW,207,0.0,0.0,95,0.00,,,0.00,WeatherTracker,2013-01-30 12:58:00,
2013-01-30 05:03:00,37.3,36.0,30.50,SSW,207,0.0,0.0,95,0.00,,,0.00,WeatherTracker,2013-01-30 13:03:00,
2013-01-30 05:08:00,37.4,36.1,30.50,SSW,207,0.0,0.0,95,0.00,,,0.00,WeatherTracker,2013-01-30 13:08:00,
2013-01-30 05:13:00,37.4,36.1,30.50,SSW,207,0.0,0.0,95,0.00,,,0.00,WeatherTracker,2013-01-30 13:13:00,
2013-01-30 05:18:00,37.5,36.2,30.50,SSW,207,0.0,0.0,95,0.00,,,0.00,WeatherTracker,2013-01-30 13:18:00,
2013-01-30 05:23:00,37.6,36.3,30.50,SSW,207,0.0,0.0,95,0.00,,,0.00,WeatherTracker,2013-01-30 13:23:00,
2013-01-30 05:28:00,37.6,36.3,30.50,SSW,207,0.0,0.0,95,0.00,,,0.00,WeatherTracker,2013-01-30 13:28:00,
2013-01-30 05:33:00,37.6,36.3,30.50,SSW,207,0.0,0.0,95,0.00,,,0.00,WeatherTracker,2013-01-30 13:33:00,
2013-01-30 05:38:00,37.6,36.3,30.50,SSW,207,0.0,0.0,95,0.00,,,0.00,WeatherTracker,2013-01-30 13:38:00,
2013-01-30 05:43:00,37.6,36.3,30.51,SSW,207,0.0,0.0,95,0.00,,,0.00,WeatherTracker,2013-01-30 13:43:00,
2013-01-30 05:48:00,37.7,36.4,30.50,SSW,207,0.0,0.0,95,0.00,,,0.00,WeatherTracker,2013-01-30 13:48:00,
2013-01-30 05:53:00,37.7,36.4,30.50,SSW,207,0.0,0.0,95,0.00,,,0.00,WeatherTracker,2013-01-30 13:53:00,
2013-01-30 05:58:00,37.7,36.4,30.50,SSW,207,0.0,0.0,95,0.00,,,0.00,WeatherTracker,2013-01-30 13:58:00,
2013-01-30 06:03:00,37.7,36.4,30.51,SSW,207,0.0,0.0,95,0.00,,,0.00,WeatherTracker,2013-01-30 14:03:00,
2013-01-30 06:08:00,37.7,36.1,30.51,SSW,207,0.0,0.0,94,0.00,,,0.00,WeatherTracker,2013-01-30 14:08:00,
2013-01-30 06:13:00,37.7,36.4,30.51,ESE,119,0.0,0.0,95,0.00,,,0.00,WeatherTracker,2013-01-30 14:13:00,
2013-01-30 06:18:00,37.8,36.5,30.51,ESE,119,0.0,0.0,95,0.00,,,0.00,WeatherTracker,2013-01-30 14:18:00,
2013-01-30 06:23:00,37.8,36.5,30.52,ESE,119,1.0,0.0,95,0.00,,,0.00,WeatherTracker,2013-01-30 14:23:00,
2013-01-30 06:29:00,37.8,36.5,30.52,ESE,119,0.0,0.0,95,0.00,,,0.00,WeatherTracker,2013-01-30 14:29:00,
2013-01-30 06:34:00,37.8,36.5,30.52,ESE,119,0.0,0.0,95,0.00,,,0.00,WeatherTracker,2013-01-30 14:34:00,
2013-01-30 06:39:00,37.8,36.5,30.52,ESE,119,0.0,0.0,95,0.00,,,0.00,WeatherTracker,2013-01-30 14:39:00,
2013-01-30 06:44:00,37.8,36.5,30.52,ESE,119,0.0,0.0,95,0.00,,,0.00,WeatherTracker,2013-01-30 14:44:00,
2013-01-30 06:49:00,37.8,36.5,30.52,ESE,119,0.0,0.0,95,0.00,,,0.00,WeatherTracker,2013-01-30 14:49:00,
2013-01-30 06:54:00,37.8,36.5,30.52,ESE,119,0.0,0.0,95,0.00,,,0.00,WeatherTracker,2013-01-30 14:54:00,
2013-01-30 06:59:00,37.8,36.5,30.52,ESE,119,0.0,0.0,95,0.00,,,0.00,WeatherTracker,2013-01-30 14:59:00,
2013-01-30 07:04:00,37.8,36.5,30.52,ESE,119,0.0,0.0,95,0.00,,,0.00,WeatherTracker,2013-01-30 15:04:00,
2013-01-30 07:09:00,37.7,36.1,30.52,ESE,119,0.0,0.0,94,0.00,,,0.00,WeatherTracker,2013-01-30 15:09:00,
2013-01-30 07:14:00,37.7,36.1,30.52,ESE,119,0.0,0.0,94,0.00,,,0.00,WeatherTracker,2013-01-30 15:14:00,
2013-01-30 07:19:00,37.7,36.1,30.52,ESE,119,0.0,0.0,94,0.00,,,0.00,WeatherTracker,2013-01-30 15:19:00,
2013-01-30 07:24:00,37.7,36.4,30.52,ESE,119,0.0,0.0,95,0.00,,,0.00,WeatherTracker,2013-01-30 15:24:00,
2013-01-30 07:29:00,37.7,36.4,30.53,ESE,119,0.0,0.0,95,0.00,,,0.00,WeatherTracker,2013-01-30 15:29:00,
2013-01-30 07:34:00,37.7,36.1,30.53,ESE,119,0.0,0.0,94,0.00,,,0.00,WeatherTracker,2013-01-30 15:34:00,
2013-01-30 07:39:00,37.7,36.1,30.53,ESE,117,1.0,0.0,94,0.00,,,0.00,WeatherTracker,2013-01-30 15:39:00,
2013-01-30 07:44:00,37.7,36.1,30.53,ESE,115,0.0,0.0,94,0.00,,,0.00,WeatherTracker,2013-01-30 15:44:00,
2013-01-30 07:49:00,37.6,36.0,30.53,ESE,121,0.0,0.0,94,0.00,,,0.00,WeatherTracker,2013-01-30 15:49:00,
2013-01-30 07:54:00,37.6,36.3,30.53,ESE,121,0.0,0.0,95,0.00,,,0.00,WeatherTracker,2013-01-30 15:54:00,
2013-01-30 07:59:00,37.7,36.4,30.53,ESE,111,2.0,0.0,95,0.00,,,0.00,WeatherTracker,2013-01-30 15:59:00,
2013-01-30 08:04:00,37.7,36.1,30.53,ESE,108,1.0,0.0,94,0.00,,,0.00,WeatherTracker,2013-01-30 16:04:00,
2013-01-30 08:09:00,37.7,36.1,30.53,ESE,118,1.0,0.0,94,0.00,,,0.00,WeatherTracker,2013-01-30 16:09:00,
2013-01-30 08:14:00,37.7,36.1,30.53,ESE,109,0.0,0.0,94,0.00,,,0.00,WeatherTracker,2013-01-30 16:14:00,
2013-01-30 08:19:00,37.7,36.1,30.54,ESE,105,1.0,0.0,94,0.00,,,0.00,WeatherTracker,2013-01-30 16:19:00,
2013-01-30 08:24:00,37.7,36.1,30.54,ESE,107,0.0,0.0,94,0.00,,,0.00,WeatherTracker,2013-01-30 16:24:00,
2013-01-30 08:30:00,37.6,36.0,30.54,ESE,103,0.0,0.0,94,0.00,,,0.00,WeatherTracker,2013-01-30 16:30:00,
2013-01-30 08:35:00,37.7,35.9,30.54,ESE,103,0.0,0.0,93,0.00,,,0.00,WeatherTracker,2013-01-30 16:35:00,
2013-01-30 08:40:00,37.7,35.9,30.54,ESE,103,0.0,0.0,93,0.00,,,0.00,WeatherTracker,2013-01-30 16:40:00,
2013-01-30 08:45:00,37.7,35.9,30.55,SE,129,0.0,0.0,93,0.00,,,0.00,WeatherTracker,2013-01-30 16:45:00,
2013-01-30 08:50:00,37.8,36.0,30.54,ESE,123,0.0,0.0,93,0.00,,,0.00,WeatherTracker,2013-01-30 16:50:00,
2013-01-30 08:55:00,37.8,36.0,30.55,ESE,122,0.0,0.0,93,0.00,,,0.00,WeatherTracker,2013-01-30 16:55:00,
2013-01-30 09:00:00,37.9,36.1,30.55,ESE,122,0.0,0.0,93,0.00,,,0.00,WeatherTracker,2013-01-30 17:00:00,
2013-01-30 09:05:00,38.0,36.2,30.55,ESE,122,0.0,0.0,93,0.00,,,0.00,WeatherTracker,2013-01-30 17:05:00,
2013-01-30 09:10:00,38.0,36.2,30.55,SE,130,1.0,0.0,93,0.00,,,0.00,WeatherTracker,2013-01-30 17:10:00,
2013-01-30 09:15:00,38.1,36.3,30.55,SE,130,0.0,0.0,93,0.00,,,0.00,WeatherTracker,2013-01-30 17:15:00,
2013-01-30 09:20:00,38.2,36.4,30.54,SE,129,0.0,0.0,93,0.00,,,0.00,WeatherTracker,2013-01-30 17:20:00,
2013-01-30 09:25:00,38.3,36.5,30.54,SE,126,0.0,0.0,93,0.00,,,0.00,WeatherTracker,2013-01-30 17:25:00,
2013-01-30 09:30:00,38.4,36.6,30.54,SE,139,0.0,0.0,93,0.00,,,0.00,WeatherTracker,2013-01-30 17:30:00,
2013-01-30 09:35:00,38.5,36.7,30.54,SE,139,0.0,0.0,93,0.00,,,0.00,WeatherTracker,2013-01-30 17:35:00,
2013-01-30 09:40:00,38.7,36.9,30.55,SE,139,1.0,0.0,93,0.00,,,0.00,WeatherTracker,2013-01-30 17:40:00,
2013-01-30 09:45:00,38.9,37.1,30.55,SE,139,0.0,0.0,93,0.00,,,0.00,WeatherTracker,2013-01-30 17:45:00,
2013-01-30 09:50:00,39.1,37.2,30.55,SE,127,0.0,0.0,93,0.00,,,0.00,WeatherTracker,2013-01-30 17:50:00,
2013-01-30 09:55:00,39.2,37.3,30.55,SE,125,0.0,0.0,93,0.00,,,0.00,WeatherTracker,2013-01-30 17:55:00,
2013-01-30 10:00:00,39.4,37.5,30.55,ESE,107,0.0,0.0,93,0.00,,,0.00,WeatherTracker,2013-01-30 18:00:00,
2013-01-30 10:05:00,39.4,37.3,30.55,ESE,107,3.0,0.0,92,0.00,,,0.00,WeatherTracker,2013-01-30 18:05:00,
2013-01-30 10:10:00,39.5,37.4,30.55,ESE,105,1.0,0.0,92,0.00,,,0.00,WeatherTracker,2013-01-30 18:10:00,
2013-01-30 10:15:00,39.5,37.4,30.55,ESE,108,1.0,0.0,92,0.00,,,0.00,WeatherTracker,2013-01-30 18:15:00,
2013-01-30 10:20:00,39.6,37.2,30.55,ESE,108,2.0,0.0,91,0.00,,,0.00,WeatherTracker,2013-01-30 18:20:00,
2013-01-30 10:25:00,39.6,37.2,30.55,ESE,114,1.0,0.0,91,0.00,,,0.00,WeatherTracker,2013-01-30 18:25:00,
2013-01-30 10:31:00,39.7,37.3,30.55,ESE,103,2.0,0.0,91,0.00,,,0.00,WeatherTracker,2013-01-30 18:31:00,
2013-01-30 10:36:00,39.9,37.5,30.55,ESE,107,0.0,0.0,91,0.00,,,0.00,WeatherTracker,2013-01-30 18:36:00,
2013-01-30 10:41:00,40.1,37.7,30.55,ESE,108,1.0,0.0,91,0.00,,,0.00,WeatherTracker,2013-01-30 18:41:00,
2013-01-30 10:46:00,40.2,37.5,30.55,ESE,109,2.0,0.0,90,0.00,,,0.00,WeatherTracker,2013-01-30 18:46:00,
2013-01-30 10:51:00,40.2,37.5,30.55,ESE,113,1.0,0.0,90,0.00,,,0.00,WeatherTracker,2013-01-30 18:51:00,
2013-01-30 10:56:00,40.4,37.7,30.55,ESE,113,0.0,0.0,90,0.00,,,0.00,WeatherTracker,2013-01-30 18:56:00,
2013-01-30 11:01:00,40.6,37.9,30.55,ESE,121,1.0,0.0,90,0.00,,,0.00,WeatherTracker,2013-01-30 19:01:00,
2013-01-30 11:06:00,40.7,38.0,30.55,SE,126,1.0,0.0,90,0.00,,,0.00,WeatherTracker,2013-01-30 19:06:00,
2013-01-30 11:11:00,40.9,38.5,30.55,ESE,119,1.0,0.0,91,0.00,,,0.00,WeatherTracker,2013-01-30 19:11:00,
2013-01-30 11:16:00,41.0,38.3,30.54,SSE,159,0.0,0.0,90,0.00,,,0.00,WeatherTracker,2013-01-30 19:16:00,
2013-01-30 11:21:00,41.2,38.5,30.54,ESE,123,0.0,0.0,90,0.00,,,0.00,WeatherTracker,2013-01-30 19:21:00,
2013-01-30 11:26:00,41.3,38.6,30.54,SE,124,0.0,0.0,90,0.00,,,0.00,WeatherTracker,2013-01-30 19:26:00,
2013-01-30 11:31:00,41.5,38.8,30.54,SE,124,0.0,0.0,90,0.00,,,0.00,WeatherTracker,2013-01-30 19:31:00,
2013-01-30 11:36:00,41.8,39.1,30.54,SE,134,0.0,0.0,90,0.00,,,0.00,WeatherTracker,2013-01-30 19:36:00,
2013-01-30 11:41:00,42.0,39.0,30.54,ESE,113,3.0,0.0,89,0.00,,,0.00,WeatherTracker,2013-01-30 19:41:00,
2013-01-30 11:47:00,42.2,39.2,30.54,ESE,111,2.0,0.0,89,0.00,,,0.00,WeatherTracker,2013-01-30 19:47:00,
2013-01-30 11:52:00,42.5,39.2,30.54,ESE,111,2.0,0.0,88,0.00,,,0.00,WeatherTracker,2013-01-30 19:52:00,
2013-01-30 11:57:00,42.9,39.6,30.53,ESE,112,0.0,0.0,88,0.00,,,0.00,WeatherTracker,2013-01-30 19:57:00,
2013-01-30 12:02:00,43.3,40.3,30.53,ESE,108,0.0,0.0,89,0.00,,,0.00,WeatherTracker,2013-01-30 20:02:00,
2013-01-30 12:07:00,44.0,40.1,30.52,NNE,12,0.0,0.0,86,0.00,,,0.00,WeatherTracker,2013-01-30 20:07:00,
2013-01-30 12:12:00,44.5,40.9,30.52,NW,314,0.0,0.0,87,0.00,,,0.00,WeatherTracker,2013-01-30 20:12:00,
2013-01-30 12:17:00,44.9,40.7,30.52,WNW,286,0.0,0.0,85,0.00,,,0.00,WeatherTracker,2013-01-30 20:17:00,
2013-01-30 12:22:00,44.9,40.4,30.51,ESE,105,1.0,0.0,84,0.00,,,0.00,WeatherTracker,2013-01-30 20:22:00,
2013-01-30 12:27:00,44.8,40.3,30.51,ESE,108,1.0,0.0,84,0.00,,,0.00,WeatherTracker,2013-01-30 20:27:00,
2013-01-30 12:32:00,44.6,40.1,30.51,ESE,113,2.0,0.0,84,0.00,,,0.00,WeatherTracker,2013-01-30 20:32:00,
2013-01-30 12:37:00,44.6,40.1,30.51,ESE,102,1.0,0.0,84,0.00,,,0.00,WeatherTracker,2013-01-30 20:37:00,
2013-01-30 12:42:00,44.5,39.7,30.51,ESE,109,0.0,0.0,83,0.00,,,0.00,WeatherTracker,2013-01-30 20:42:00,
2013-01-30 12:47:00,44.4,39.9,30.50,East,84,0.0,0.0,84,0.00,,,0.00,WeatherTracker,2013-01-30 20:47:00,
2013-01-30 12:52:00,44.3,39.5,30.50,ENE,57,0.0,0.0,83,0.00,,,0.00,WeatherTracker,2013-01-30 20:52:00,
2013-01-30 12:57:00,44.3,39.2,30.50,NNE,20,1.0,0.0,82,0.00,,,0.00,WeatherTracker,2013-01-30 20:57:00,
2013-01-30 13:02:00,44.3,39.8,30.50,SSE,150,2.0,0.0,84,0.00,,,0.00,WeatherTracker,2013-01-30 21:02:00,
2013-01-30 13:07:00,44.3,39.8,30.50,East,95,0.0,0.0,84,0.00,,,0.00,WeatherTracker,2013-01-30 21:07:00,
2013-01-30 13:12:00,44.2,39.7,30.50,ESE,110,1.0,0.0,84,0.00,,,0.00,WeatherTracker,2013-01-30 21:12:00,
2013-01-30 13:17:00,44.3,39.5,30.50,NE,44,0.0,0.0,83,0.00,,,0.00,WeatherTracker,2013-01-30 21:17:00,
2013-01-30 13:22:00,44.4,39.6,30.49,NE,53,0.0,0.0,83,0.00,,,0.00,WeatherTracker,2013-01-30 21:22:00,
2013-01-30 13:27:00,44.6,39.8,30.49,North,5,0.0,0.0,83,0.00,,,0.00,WeatherTracker,2013-01-30 21:27:00,
2013-01-30 13:32:00,44.6,39.8,30.49,NW,319,0.0,0.0,83,0.00,,,0.00,WeatherTracker,2013-01-30 21:32:00,
2013-01-30 13:38:00,44.4,39.6,30.49,ESE,105,0.0,0.0,83,0.00,,,0.00,WeatherTracker,2013-01-30 21:38:00,
2013-01-30 13:43:00,44.1,38.6,30.49,SSE,160,1.0,0.0,81,0.00,,,0.00,WeatherTracker,2013-01-30 21:43:00,
2013-01-30 13:48:00,43.8,38.7,30.49,SSE,157,1.0,0.0,82,0.00,,,0.00,WeatherTracker,2013-01-30 21:48:00,
2013-01-30 13:53:00,43.9,39.4,30.49,ESE,111,1.0,0.0,84,0.00,,,0.00,WeatherTracker,2013-01-30 21:53:00,
2013-01-30 13:58:00,43.9,39.1,30.49,ESE,111,1.0,0.0,83,0.00,,,0.00,WeatherTracker,2013-01-30 21:58:00,
2013-01-30 14:03:00,43.9,39.1,30.49,SSE,157,0.0,0.0,83,0.00,,,0.00,WeatherTracker,2013-01-30 22:03:00,
2013-01-30 14:08:00,44.0,39.8,30.49,SSW,195,0.0,0.0,85,0.00,,,0.00,WeatherTracker,2013-01-30 22:08:00,
2013-01-30 14:13:00,44.3,39.8,30.49,SSE,148,0.0,0.0,84,0.00,,,0.00,WeatherTracker,2013-01-30 22:13:00,
2013-01-30 14:18:00,44.3,39.8,30.49,SSE,148,0.0,0.0,84,0.00,,,0.00,WeatherTracker,2013-01-30 22:18:00,
2013-01-30 14:23:00,44.4,39.6,30.48,SSE,147,0.0,0.0,83,0.00,,,0.00,WeatherTracker,2013-01-30 22:23:00,
2013-01-30 14:28:00,44.6,40.1,30.48,ESE,109,0.0,0.0,84,0.00,,,0.00,WeatherTracker,2013-01-30 22:28:00,
2013-01-30 14:33:00,44.7,39.9,30.48,ESE,113,0.0,0.0,83,0.00,,,0.00,WeatherTracker,2013-01-30 22:33:00,
2013-01-30 14:38:00,44.9,40.4,30.48,NE,51,0.0,0.0,84,0.00,,,0.00,WeatherTracker,2013-01-30 22:38:00,
2013-01-30 14:43:00,45.1,40.3,30.48,ESE,108,1.0,0.0,83,0.00,,,0.00,WeatherTracker,2013-01-30 22:43:00,
2013-01-30 14:48:00,45.0,39.5,30.48,ESE,107,1.0,0.0,81,0.00,,,0.00,WeatherTracker,2013-01-30 22:48:00,
2013-01-30 14:53:00,44.8,39.6,30.48,ESE,110,0.0,0.0,82,0.00,,,0.00,WeatherTracker,2013-01-30 22:53:00,
2013-01-30 14:58:00,44.7,39.9,30.48,ESE,113,2.0,0.0,83,0.00,,,0.00,WeatherTracker,2013-01-30 22:58:00,
2013-01-30 15:03:00,44.7,39.5,30.48,SE,131,1.0,0.0,82,0.00,,,0.00,WeatherTracker,2013-01-30 23:03:00,
2013-01-30 15:08:00,44.6,39.8,30.48,ESE,107,1.0,0.0,83,0.00,,,0.00,WeatherTracker,2013-01-30 23:08:00,
2013-01-30 15:13:00,44.5,39.7,30.48,ESE,118,0.0,0.0,83,0.00,,,0.00,WeatherTracker,2013-01-30 23:13:00,
2013-01-30 15:18:00,44.5,39.7,30.48,ESE,118,0.0,0.0,83,0.00,,,0.00,WeatherTracker,2013-01-30 23:18:00,
2013-01-30 15:23:00,44.5,39.7,30.48,ESE,118,0.0,0.0,83,0.00,,,0.00,WeatherTracker,2013-01-30 23:23:00,
2013-01-30 15:28:00,44.4,38.9,30.48,ESE,118,0.0,0.0,81,0.00,,,0.00,WeatherTracker,2013-01-30 23:28:00,
2013-01-30 15:33:00,44.5,40.0,30.48,ESE,118,0.0,0.0,84,0.00,,,0.00,WeatherTracker,2013-01-30 23:33:00,
2013-01-30 15:39:00,44.6,39.8,30.47,ESE,118,0.0,0.0,83,0.00,,,0.00,WeatherTracker,2013-01-30 23:39:00,
2013-01-30 15:44:00,44.6,39.5,30.47,ESE,119,0.0,0.0,82,0.00,,,0.00,WeatherTracker,2013-01-30 23:44:00,
2013-01-30 15:49:00,44.6,39.8,30.47,ESE,119,0.0,0.0,83,0.00,,,0.00,WeatherTracker,2013-01-30 23:49:00,
2013-01-30 15:54:00,44.5,39.7,30.47,ESE,119,0.0,0.0,83,0.00,,,0.00,WeatherTracker,2013-01-30 23:54:00,
2013-01-30 15:59:00,44.4,39.3,30.47,ESE,119,0.0,0.0,82,0.00,,,0.00,WeatherTracker,2013-01-30 23:59:00,
2013-01-30 16:04:00,44.3,39.5,30.47,ESE,119,0.0,0.0,83,0.00,,,0.00,WeatherTracker,2013-01-31 00:04:00,
2013-01-30 16:09:00,44.2,39.4,30.47,ESE,119,0.0,0.0,83,0.00,,,0.00,WeatherTracker,2013-01-31 00:09:00,
2013-01-30 16:14:00,44.2,39.4,30.47,ESE,119,1.0,0.0,83,0.00,,,0.00,WeatherTracker,2013-01-31 00:14:00,
2013-01-30 16:19:00,44.1,38.6,30.47,ESE,119,0.0,0.0,81,0.00,,,0.00,WeatherTracker,2013-01-31 00:19:00,
2013-01-30 16:24:00,44.1,39.3,30.47,ESE,119,0.0,0.0,83,0.00,,,0.00,WeatherTracker,2013-01-31 00:24:00,
2013-01-30 16:29:00,44.1,39.6,30.47,ESE,117,0.0,0.0,84,0.00,,,0.00,WeatherTracker,2013-01-31 00:29:00,
2013-01-30 16:34:00,44.0,39.2,30.47,ESE,117,0.0,0.0,83,0.00,,,0.00,WeatherTracker,2013-01-31 00:34:00,
2013-01-30 16:39:00,43.9,39.1,30.47,ESE,117,0.0,0.0,83,0.00,,,0.00,WeatherTracker,2013-01-31 00:39:00,
2013-01-30 16:44:00,43.8,39.3,30.46,ESE,117,0.0,0.0,84,0.00,,,0.00,WeatherTracker,2013-01-31 00:44:00,
2013-01-30 16:49:00,43.8,39.0,30.47,ESE,117,0.0,0.0,83,0.00,,,0.00,WeatherTracker,2013-01-31 00:49:00,
2013-01-30 16:54:00,43.7,39.2,30.47,ESE,117,0.0,0.0,84,0.00,,,0.00,WeatherTracker,2013-01-31 00:54:00,
2013-01-30 16:59:00,43.6,39.1,30.46,ESE,117,0.0,0.0,84,0.00,,,0.00,WeatherTracker,2013-01-31 00:59:00,
2013-01-30 17:05:00,43.5,39.0,30.46,ESE,115,0.0,0.0,84,0.00,,,0.00,WeatherTracker,2013-01-31 01:05:00,
2013-01-30 17:10:00,43.4,38.9,30.46,ESE,115,0.0,0.0,84,0.00,,,0.00,WeatherTracker,2013-01-31 01:10:00,
2013-01-30 17:15:00,43.3,38.8,30.46,ESE,118,0.0,0.0,84,0.00,,,0.00,WeatherTracker,2013-01-31 01:15:00,
2013-01-30 17:20:00,43.2,38.7,30.46,ESE,118,0.0,0.0,84,0.00,,,0.00,WeatherTracker,2013-01-31 01:20:00,
2013-01-30 17:24:00,43.1,38.6,30.46,ESE,118,0.0,0.0,84,0.00,,,0.00,WeatherTracker,2013-01-31 01:24:00,
2013-01-30 17:30:00,43.1,38.6,30.46,ESE,118,0.0,0.0,84,0.00,,,0.00,WeatherTracker,2013-01-31 01:30:00,
2013-01-30 17:35:00,43.0,38.5,30.46,ESE,118,0.0,0.0,84,0.00,,,0.00,WeatherTracker,2013-01-31 01:35:00,
2013-01-30 17:40:00,42.9,38.4,30.46,ESE,118,0.0,0.0,84,0.00,,,0.00,WeatherTracker,2013-01-31 01:40:00,
2013-01-30 17:45:00,42.8,38.6,30.46,ESE,118,0.0,0.0,85,0.00,,,0.00,WeatherTracker,2013-01-31 01:45:00,
2013-01-30 17:50:00,42.8,38.6,30.46,ESE,118,0.0,0.0,85,0.00,,,0.00,WeatherTracker,2013-01-31 01:50:00,
2013-01-30 17:55:00,42.7,38.5,30.46,ESE,118,0.0,0.0,85,0.00,,,0.00,WeatherTracker,2013-01-31 01:55:00,
2013-01-30 18:00:00,42.7,38.5,30.46,ESE,117,1.0,0.0,85,0.00,,,0.00,WeatherTracker,2013-01-31 02:00:00,
2013-01-30 18:05:00,42.6,38.7,30.45,ESE,117,0.0,0.0,86,0.00,,,0.00,WeatherTracker,2013-01-31 02:05:00,
2013-01-30 18:10:00,42.5,38.3,30.46,ESE,117,0.0,0.0,85,0.00,,,0.00,WeatherTracker,2013-01-31 02:10:00,
2013-01-30 18:15:00,42.5,38.6,30.46,ESE,117,0.0,0.0,86,0.00,,,0.00,WeatherTracker,2013-01-31 02:15:00,
2013-01-30 18:20:00,42.5,38.6,30.46,ESE,117,0.0,0.0,86,0.00,,,0.00,WeatherTracker,2013-01-31 02:20:00,
2013-01-30 18:25:00,42.4,38.5,30.46,ESE,117,0.0,0.0,86,0.00,,,0.00,WeatherTracker,2013-01-31 02:25:00,
2013-01-30 18:30:00,42.4,38.5,30.45,ESE,117,0.0,0.0,86,0.00,,,0.00,WeatherTracker,2013-01-31 02:30:00,
2013-01-30 18:35:00,42.3,38.4,30.45,ESE,117,0.0,0.0,86,0.00,,,0.00,WeatherTracker,2013-01-31 02:35:00,
2013-01-30 18:40:00,42.3,38.4,30.46,ESE,117,0.0,0.0,86,0.00,,,0.00,WeatherTracker,2013-01-31 02:40:00,
2013-01-30 18:45:00,42.2,38.3,30.46,ESE,123,1.0,0.0,86,0.00,,,0.00,WeatherTracker,2013-01-31 02:45:00,
2013-01-30 18:50:00,42.2,38.3,30.46,ESE,120,1.0,0.0,86,0.00,,,0.00,WeatherTracker,2013-01-31 02:50:00,
2013-01-30 18:55:00,42.2,38.3,30.46,ESE,115,3.0,0.0,86,0.00,,,0.00,WeatherTracker,2013-01-31 02:55:00,
2013-01-30 19:00:00,42.2,38.6,30.45,ESE,109,0.0,0.0,87,0.00,,,0.00,WeatherTracker,2013-01-31 03:00:00,
2013-01-30 19:05:00,42.1,38.2,30.45,ESE,109,0.0,0.0,86,0.00,,,0.00,WeatherTracker,2013-01-31 03:05:00,
2013-01-30 19:10:00,42.1,38.5,30.45,ESE,109,0.0,0.0,87,0.00,,,0.00,WeatherTracker,2013-01-31 03:10:00,
2013-01-30 19:15:00,42.1,38.5,30.45,ESE,109,0.0,0.0,87,0.00,,,0.00,WeatherTracker,2013-01-31 03:15:00,
2013-01-30 19:21:00,42.0,38.1,30.45,ESE,109,1.0,0.0,86,0.00,,,0.00,WeatherTracker,2013-01-31 03:21:00,
2013-01-30 19:26:00,42.0,38.4,30.45,ESE,109,0.0,0.0,87,0.00,,,0.00,WeatherTracker,2013-01-31 03:26:00,
2013-01-30 19:31:00,42.0,38.4,30.45,ESE,109,0.0,0.0,87,0.00,,,0.00,WeatherTracker,2013-01-31 03:31:00,
2013-01-30 19:36:00,41.9,38.0,30.45,ESE,109,0.0,0.0,86,0.00,,,0.00,WeatherTracker,2013-01-31 03:36:00,
2013-01-30 19:41:00,41.9,38.0,30.45,ESE,109,0.0,0.0,86,0.00,,,0.00,WeatherTracker,2013-01-31 03:41:00,
2013-01-30 19:46:00,41.9,38.3,30.45,ESE,109,0.0,0.0,87,0.00,,,0.00,WeatherTracker,2013-01-31 03:46:00,
2013-01-30 19:51:00,41.8,38.2,30.45,ESE,109,0.0,0.0,87,0.00,,,0.00,WeatherTracker,2013-01-31 03:51:00,
2013-01-30 19:56:00,41.8,38.2,30.45,ESE,109,0.0,0.0,87,0.00,,,0.00,WeatherTracker,2013-01-31 03:56:00,
2013-01-30 20:01:00,41.7,38.1,30.45,ESE,109,0.0,0.0,87,0.00,,,0.00,WeatherTracker,2013-01-31 04:01:00,
2013-01-30 20:06:00,41.7,38.1,30.44,ESE,109,0.0,0.0,87,0.00,,,0.00,WeatherTracker,2013-01-31 04:06:00,
2013-01-30 20:11:00,41.6,38.0,30.44,ESE,109,0.0,0.0,87,0.00,,,0.00,WeatherTracker,2013-01-31 04:11:00,
2013-01-30 20:16:00,41.6,38.3,30.44,ESE,109,0.0,0.0,88,0.00,,,0.00,WeatherTracker,2013-01-31 04:16:00,
2013-01-30 20:21:00,41.6,38.3,30.44,ESE,109,0.0,0.0,88,0.00,,,0.00,WeatherTracker,2013-01-31 04:21:00,
2013-01-30 20:26:00,41.6,38.6,30.44,ESE,109,0.0,0.0,89,0.00,,,0.00,WeatherTracker,2013-01-31 04:26:00,
2013-01-30 20:31:00,41.5,38.2,30.44,ESE,109,0.0,0.0,88,0.00,,,0.00,WeatherTracker,2013-01-31 04:31:00,
2013-01-30 20:36:00,41.5,38.5,30.44,ESE,109,0.0,0.0,89,0.00,,,0.00,WeatherTracker,2013-01-31 04:36:00,
2013-01-30 20:41:00,41.5,38.8,30.44,ESE,109,0.0,0.0,90,0.00,,,0.00,WeatherTracker,2013-01-31 04:41:00,
2013-01-30 20:46:00,41.4,38.7,30.44,ESE,109,0.0,0.0,90,0.00,,,0.00,WeatherTracker,2013-01-31 04:46:00,
2013-01-30 20:51:00,41.4,38.7,30.44,ESE,109,0.0,0.0,90,0.00,,,0.00,WeatherTracker,2013-01-31 04:51:00,
2013-01-30 20:56:00,41.4,38.4,30.44,ESE,109,0.0,0.0,89,0.00,,,0.00,WeatherTracker,2013-01-31 04:56:00,
2013-01-30 21:00:00,41.4,38.4,30.44,ESE,109,0.0,0.0,89,0.00,,,0.00,WeatherTracker,2013-01-31 05:00:00,
2013-01-30 21:05:00,41.3,38.3,30.44,ESE,109,0.0,0.0,89,0.00,,,0.00,WeatherTracker,2013-01-31 05:05:00,
2013-01-30 21:10:00,41.3,38.3,30.43,ESE,109,0.0,0.0,89,0.00,,,0.00,WeatherTracker,2013-01-31 05:10:00,
2013-01-30 21:15:00,41.2,38.2,30.43,ESE,109,0.0,0.0,89,0.00,,,0.00,WeatherTracker,2013-01-31 05:15:00,
2013-01-30 21:20:00,41.3,38.6,30.43,ESE,109,0.0,0.0,90,0.00,,,0.00,WeatherTracker,2013-01-31 05:20:00,
2013-01-30 21:26:00,41.2,38.2,30.43,ESE,109,0.0,0.0,89,0.00,,,0.00,WeatherTracker,2013-01-31 05:26:00,
2013-01-30 21:31:00,41.1,38.1,30.43,ESE,109,0.0,0.0,89,0.00,,,0.00,WeatherTracker,2013-01-31 05:31:00,
2013-01-30 21:36:00,41.1,38.1,30.43,ESE,109,0.0,0.0,89,0.00,,,0.00,WeatherTracker,2013-01-31 05:36:00,
2013-01-30 21:41:00,41.1,38.1,30.43,ESE,109,0.0,0.0,89,0.00,,,0.00,WeatherTracker,2013-01-31 05:41:00,
2013-01-30 21:46:00,41.1,38.1,30.43,ESE,109,0.0,0.0,89,0.00,,,0.00,WeatherTracker,2013-01-31 05:46:00,
2013-01-30 21:51:00,41.1,38.4,30.43,ESE,109,0.0,0.0,90,0.00,,,0.00,WeatherTracker,2013-01-31 05:51:00,
2013-01-30 21:56:00,41.1,38.4,30.43,ESE,109,0.0,0.0,90,0.00,,,0.00,WeatherTracker,2013-01-31 05:56:00,
2013-01-30 22:01:00,41.0,38.0,30.43,ESE,109,0.0,0.0,89,0.00,,,0.00,WeatherTracker,2013-01-31 06:01:00,
2013-01-30 22:06:00,41.0,38.0,30.43,ESE,109,0.0,0.0,89,0.00,,,0.00,WeatherTracker,2013-01-31 06:06:00,
2013-01-30 22:11:00,41.0,38.0,30.43,ESE,109,0.0,0.0,89,0.00,,,0.00,WeatherTracker,2013-01-31 06:11:00,
2013-01-30 22:16:00,41.0,38.0,30.43,ESE,109,0.0,0.0,89,0.00,,,0.00,WeatherTracker,2013-01-31 06:16:00,
2013-01-30 22:21:00,40.9,37.9,30.43,ESE,109,0.0,0.0,89,0.00,,,0.00,WeatherTracker,2013-01-31 06:21:00,
2013-01-30 22:26:00,40.9,38.2,30.43,ESE,109,0.0,0.0,90,0.00,,,0.00,WeatherTracker,2013-01-31 06:26:00,
2013-01-30 22:31:00,40.9,38.2,30.43,ESE,109,0.0,0.0,90,0.00,,,0.00,WeatherTracker,2013-01-31 06:31:00,
2013-01-30 22:36:00,40.9,38.2,30.43,ESE,109,0.0,0.0,90,0.00,,,0.00,WeatherTracker,2013-01-31 06:36:00,
2013-01-30 22:41:00,40.9,38.2,30.43,ESE,109,0.0,0.0,90,0.00,,,0.00,WeatherTracker,2013-01-31 06:41:00,
2013-01-30 22:46:00,40.9,38.5,30.43,ESE,109,0.0,0.0,91,0.00,,,0.00,WeatherTracker,2013-01-31 06:46:00,
2013-01-30 22:51:00,40.9,38.2,30.43,ESE,109,0.0,0.0,90,0.00,,,0.00,WeatherTracker,2013-01-31 06:51:00,
2013-01-30 22:56:00,40.9,38.2,30.43,ESE,109,0.0,0.0,90,0.00,,,0.00,WeatherTracker,2013-01-31 06:56:00,
2013-01-30 23:01:00,40.8,38.1,30.42,ESE,109,0.0,0.0,90,0.00,,,0.00,WeatherTracker,2013-01-31 07:01:00,
2013-01-30 23:06:00,40.8,38.4,30.42,ESE,109,0.0,0.0,91,0.00,,,0.00,WeatherTracker,2013-01-31 07:06:00,
2013-01-30 23:12:00,40.8,38.4,30.42,ESE,109,0.0,0.0,91,0.00,,,0.00,WeatherTracker,2013-01-31 07:12:00,
2013-01-30 23:17:00,40.8,38.1,30.42,ESE,109,0.0,0.0,90,0.00,,,0.00,WeatherTracker,2013-01-31 07:17:00,
2013-01-30 23:22:00,40.8,38.4,30.42,ESE,109,0.0,0.0,91,0.00,,,0.00,WeatherTracker,2013-01-31 07:22:00,
2013-01-30 23:27:00,40.7,38.0,30.42,ESE,109,0.0,0.0,90,0.00,,,0.00,WeatherTracker,2013-01-31 07:27:00,
2013-01-30 23:32:00,40.7,38.0,30.42,ESE,109,0.0,0.0,90,0.00,,,0.00,WeatherTracker,2013-01-31 07:32:00,
2013-01-30 23:37:00,40.7,38.0,30.42,ESE,109,0.0,0.0,90,0.00,,,0.00,WeatherTracker,2013-01-31 07:37:00,
2013-01-30 23:42:00,40.8,37.8,30.42,ESE,109,0.0,0.0,89,0.00,,,0.00,WeatherTracker,2013-01-31 07:42:00,
2013-01-30 23:47:00,40.8,37.8,30.42,ESE,109,0.0,0.0,89,0.00,,,0.00,WeatherTracker,2013-01-31 07:47:00,
2013-01-30 23:52:00,40.9,38.2,30.42,ESE,109,0.0,0.0,90,0.00,,,0.00,WeatherTracker,2013-01-31 07:52:00,
2013-01-30 23:57:00,40.9,38.5,30.42,ESE,109,0.0,0.0,91,0.00,,,0.00,WeatherTracker,2013-01-31 07:57:00,